Amsterdam, Netherlands

9:49 AM CEST on July 25, 2017 (GMT +0200)
Amsterdam

Weather History for 06240 - September, 2013

Change the Weather History Date:

Wednesday, September 4, 2013

  Actual Average Record
Temperature  
Mean Temperature 66 °F -  
Max Temperature 76 °F 63 °F - ()
Min Temperature 57 °F 50 °F - ()
Cooling Degree Days 2    
Growing Degree Days 16 (Base 50)    
Moisture  
Dew Point 61 °F    
Average Humidity 79    
Maximum Humidity 100    
Minimum Humidity 56    
Precipitation  
Precipitation 0.00 in - - ()
Sea Level Pressure  
Sea Level Pressure 30.19 in    
Wind  
Wind Speed 5 mph ()    
Max Wind Speed 12 mph    
Max Gust Speed -    
Visibility 6.6 miles    
Events Fog    
T = Trace of Precipitation, MM = Missing Value Source: Averaged Metar Reports

Daily Weather History Graph

Daily Weather History Graph

Search for Another Location

Airport or City:

Trip Planner

Search our weather history database for the weather conditions in past years. The results will help you decide how hot, cold, wet, or windy it might be!

Date:

Astronomy

Sep. 04, 2013 Rise Set
Actual Time 6:57 AM CEST 8:21 PM CEST
Civil Twilight 6:21 AM CEST 8:56 PM CEST
Nautical Twilight 5:38 AM CEST 9:39 PM CEST
Astronomical Twilight 4:51 AM CEST 10:26 PM CEST
Moon 5:52 AM CEST (9/4) 7:29 PM CEST (9/4)
Length of Visible Light 14h 34m
Length of Day
13h 24m
Waning Crescent, 1% of the Moon is Illuminated
Sep 4
Waning Crescent
Sep 5
New
Sep 12
First Quarter
Sep 19
Full
Sep 27
Last Quarter

Hourly Weather History & Observations

Time (CEST) Temp. Dew Point Humidity Pressure Visibility Wind Dir Wind Speed Gust Speed Precip Events Conditions
12:25 AM 62.6 °F 60.8 °F 94% 30.30 in 6.2 mi East 3.5 mph - N/A   Mostly Cloudy
12:55 AM 64.4 °F 60.8 °F 88% 30.30 in 6.2 mi East 3.5 mph - N/A   Mostly Cloudy
1:25 AM 64.4 °F 60.8 °F 88% 30.30 in 6.2 mi Variable 2.3 mph - N/A   Mostly Cloudy
1:55 AM 64.4 °F 60.8 °F 88% 30.27 in 6.2 mi East 4.6 mph - N/A   Mostly Cloudy
2:00 AM 64 °F 61 °F 86% 30.30 in 25 mi East 4.5 mph - -   Partly Cloudy
2:25 AM 62.6 °F 60.8 °F 94% 30.27 in 6.2 mi Variable 2.3 mph - N/A   Scattered Clouds
2:55 AM 62.6 °F 59.0 °F 88% 30.27 in 6.2 mi East 3.5 mph - N/A   Partly Cloudy
3:25 AM 62.6 °F 60.8 °F 94% 30.27 in 6.2 mi East 3.5 mph - N/A   Partly Cloudy
3:55 AM 62.6 °F 60.8 °F 94% 30.27 in 6.2 mi NE 2.3 mph - N/A Fog Shallow Fog
4:25 AM 60.8 °F 59.0 °F 94% 30.27 in 6.2 mi East 3.5 mph - N/A Fog Shallow Fog
4:55 AM 62.6 °F 60.8 °F 94% 30.27 in 6.2 mi East 2.3 mph - N/A Fog Shallow Fog
5:25 AM 60.8 °F 60.8 °F 100% 30.24 in 6.2 mi East 2.3 mph - N/A Fog Shallow Fog
5:55 AM 59.0 °F 59.0 °F 100% 30.24 in 6.2 mi ENE 3.5 mph - N/A Fog Shallow Fog
6:25 AM 59.0 °F 59.0 °F 100% 30.24 in 6.2 mi East 4.6 mph - N/A Fog Shallow Fog
6:55 AM 59.0 °F 59.0 °F 100% 30.24 in 6.2 mi NE 2.3 mph - N/A   Partly Cloudy
7:25 AM 60.8 °F 60.8 °F 100% 30.24 in 6.2 mi East 2.3 mph - N/A Fog Shallow Fog
7:55 AM 60.8 °F 60.8 °F 100% 30.24 in 6.2 mi East 2.3 mph - N/A Fog Shallow Fog
8:00 AM 61 °F 60 °F 97% 30.26 in 9 mi East 2.2 mph - -   Partly Cloudy
8:25 AM 62.6 °F 62.6 °F 100% 30.24 in 6.2 mi East 2.3 mph - N/A   Mostly Cloudy
8:55 AM 64.4 °F 62.6 °F 94% 30.24 in 6.2 mi Variable 2.3 mph - N/A   Scattered Clouds
9:25 AM 68.0 °F 62.6 °F 83% 30.24 in 6.2 mi Variable 1.2 mph - N/A   Scattered Clouds
9:55 AM 69.8 °F 62.6 °F 78% 30.24 in 6.2 mi Variable 1.2 mph - N/A   Scattered Clouds
10:25 AM 69.8 °F 60.8 °F 73% 30.24 in 6.2 mi Variable 2.3 mph - N/A   Mostly Cloudy
10:55 AM 71.6 °F 62.6 °F 73% 30.24 in 6.2 mi Variable 2.3 mph - N/A   Scattered Clouds
11:00 AM 71 °F 60 °F 61% 30.26 in 6 mi 2.2 mph - -   Light Haze
11:25 AM 71.6 °F 60.8 °F 69% 30.24 in 6.2 mi East 3.5 mph - N/A   Scattered Clouds
11:55 AM 73.4 °F 62.6 °F 69% 30.24 in 6.2 mi SE 5.8 mph - N/A   Scattered Clouds
12:25 PM 73.4 °F 60.8 °F 65% 30.21 in 6.2 mi SE 5.8 mph - N/A   Scattered Clouds
12:55 PM 71.6 °F 59.0 °F 64% 30.21 in 6.2 mi ESE 8.1 mph - N/A   Scattered Clouds
1:25 PM 73.4 °F 60.8 °F 65% 30.21 in 6.2 mi ESE 6.9 mph - N/A   Scattered Clouds
1:55 PM 73.4 °F 60.8 °F 65% 30.21 in 6.2 mi ENE 6.9 mph - N/A   Scattered Clouds
2:00 PM 73 °F 60 °F 56% 30.21 in 9 mi ENE 6.7 mph - -   Partly Cloudy
2:25 PM 73.4 °F 60.8 °F 65% 30.18 in 6.2 mi ENE 10.4 mph - N/A   Partly Cloudy
2:55 PM 73.4 °F 60.8 °F 65% 30.18 in 6.2 mi East 6.9 mph - N/A   Partly Cloudy
3:25 PM 75.2 °F 60.8 °F 61% 30.15 in 6.2 mi East 8.1 mph - N/A   Partly Cloudy
3:55 PM 77.0 °F 60.8 °F 57% 30.15 in 6.2 mi ENE 8.1 mph - N/A   Partly Cloudy
4:25 PM 77.0 °F 62.6 °F 61% 30.15 in 6.2 mi ENE 9.2 mph - N/A   Partly Cloudy
4:55 PM 77.0 °F 60.8 °F 57% 30.15 in 6.2 mi ENE 10.4 mph - N/A   Partly Cloudy
5:00 PM 75 °F 62 °F 56% 30.16 in 9 mi ENE 11.2 mph - -  
5:25 PM 75.2 °F 62.6 °F 65% 30.12 in 6.2 mi NE 10.4 mph - N/A   Partly Cloudy
5:55 PM 75.2 °F 60.8 °F 61% 30.12 in - NE 11.5 mph - N/A   Clear
6:25 PM 75.2 °F 60.8 °F 61% 30.12 in - ENE 10.4 mph - N/A   Clear
6:55 PM 73.4 °F 62.6 °F 69% 30.12 in - ENE 10.4 mph - N/A   Clear
7:25 PM 71.6 °F 62.6 °F 73% 30.09 in - ENE 10.4 mph - N/A   Clear
7:55 PM 69.8 °F 62.6 °F 78% 30.09 in - ENE 9.2 mph - N/A   Clear
8:00 PM 70 °F 62 °F 69% 30.12 in 11 mi ENE 8.9 mph - -   Partly Cloudy
8:25 PM 68.0 °F 62.6 °F 83% 30.09 in - ENE 8.1 mph - N/A   Clear
8:55 PM 66.2 °F 60.8 °F 83% 30.09 in - ENE 6.9 mph - N/A   Clear
9:25 PM 64.4 °F 60.8 °F 88% 30.09 in - ENE 6.9 mph - N/A   Clear
9:55 PM 66.2 °F 62.6 °F 88% 30.09 in - ENE 8.1 mph - N/A   Clear
10:25 PM 66.2 °F 62.6 °F 88% 30.09 in - East 9.2 mph - N/A   Clear
10:55 PM 68.0 °F 62.6 °F 83% 30.09 in - East 10.4 mph - N/A   Clear
11:00 PM 67 °F 62 °F 78% 30.09 in 11 mi East 11.2 mph - -  
11:25 PM 66.2 °F 60.8 °F 83% 30.06 in - East 9.2 mph - N/A   Clear
11:55 PM 66.2 °F 60.8 °F 83% 30.06 in - East 8.1 mph - N/A   Clear